Regional Weather Roundup
Issued by NWS

Home | Current Version | Previous Version | Text Only | Print | Product List | Glossary Off
Versions: 1 2 3 4 5 6 7 8 9 10 11 12 13 14 15 16 17 18 19 20 21 22 23 24 25 26 27 28 29 30 31 32 33 34 35 36 37 38 39 40 41 42 43 44 45 46 47 48 49 50

709
ASUS43 KIND 180709
RWRIN

WEATHER ROUNDUP FOR INDIANA
NATIONAL WEATHER SERVICE INDIANAPOLIS IN
200 AM EST THU JAN 18 2018

NOTE: "FAIR" INDICATES FEW OR NO CLOUDS BELOW 12,000 FEET WITH NO
SIGNIFICANT WEATHER AND/OR OBSTRUCTIONS TO VISIBILITY.

* - STATION DOES NOT REPORT WEATHER SUCH AS PRECIPITATION OR FOG.

+ - STATION NOT QUALITY CONTROLLED BY THE NATIONAL WEATHER SERVICE.
    USE DATA WITH CAUTION...ESPECIALLY DEWPOINT AND RELATIVE
    HUMIDITY OBSERVATIONS.

INZ001>003-010>013-019-020-180800-
NORTHWEST INDIANA

CITY           SKY/WX    TMP DP  RH WIND       PRES   REMARKS
GARY /AIRPORT/ FAIR      19   9  66 SW10G16   30.23F WCI   7
KNOX *+        FAIR      18  10  73 SW15      30.24F WCI   3
LA PORTE +     FAIR      15   8  76 SW13      30.23R WCI   0
MICHIGAN CITY+ FAIR      18   9  68 SW10      30.23S WCI   6
MONTICELLO +   FAIR      15   7  72 SW14      30.29F WCI   0
RENSSELAER +   FAIR      18   9  68 SW17G23   30.27F WCI   2
VALPARAISO     FAIR      16   9  74 SW16      30.23F WCI   1

$$

LMZ046-743>745-180800-
SOUTHERN LAKE MICHIGAN

STATION/POSITION TIME  TEMP    WIND        PRES    WAVE
                       AIR SEA DIR/SP/G            HT
                 (UTC) (F)     (DEG/KT/KT) (MB)    (FT)
BURNS HARBOR     0640   17     230/ 13/ 18 1024.0F
MICHIGAN CITY    0640   17     210/ 17/ 20   N/A

$$

INZ004-005-014>016-021>024-180800-
NORTH CENTRAL INDIANA

CITY           SKY/WX    TMP DP  RH WIND       PRES   REMARKS
GOSHEN         FAIR      15   8  73 SW22G37   30.21F WCI  -3
LOGANSPORT +   FAIR      14   9  79 SW15      30.30F WCI  -1
PERU/GRISSOM   FAIR      14   9  80 SW20      30.27F WCI  -3
ROCHESTER +    FAIR      18  12  79 SW15G25   30.26F WCI   3
SOUTH BEND     FAIR      14   8  77 SW15      30.22S WCI  -1
WARSAW +       FAIR      16   9  73 SW14G22   30.23F WCI   1

$$

INZ006>009-017-018-025>027-180800-
NORTHEAST INDIANA

CITY           SKY/WX    TMP DP  RH WIND       PRES   REMARKS
AUBURN +       FAIR      14 -22  18 SW9G21    30.22F WCI   2
FORT WAYNE     FAIR      14   8  77 SW18      30.26F WCI  -3
HUNTINGTON +   FAIR      13   6  76 SW13G22   30.27F WCI  -2
KENDALLVILLE + FAIR      15   8  76 SW14      30.19F WCI   0

$$

INZ028-029-035-036-043>045-051>053-180800-
WEST CENTRAL INDIANA

CITY           SKY/WX    TMP DP  RH WIND       PRES   REMARKS
CRAWFORDSVL +  FAIR       9   6  86 MISG      30.33F
GREENCASTLE +  FAIR      10   5  79 SW3       30.38S
LAFAYETTE      FAIR      14   8  77 SW9       30.33F WCI   2
TERRE HAUTE    FAIR      10   4  76 S5        30.40F WCI   2

$$

INZ030>032-037>040-046>048-054>057-064-065-180800-
CENTRAL INDIANA

CITY           SKY/WX    TMP DP  RH WIND       PRES   REMARKS
FISHERS *+       N/A     10   9  92 SW7       30.36F WCI   0
FRANKFORT +    FAIR      14   9  80 SW13      30.33F WCI  -1
GREENWOOD *+   FAIR      12   6  77 SW7       30.39S WCI   1
INDIANAPOLIS   FAIR      11   5  77 SW12      30.38S WCI  -3
-EAGLE CREEK   FAIR       9   4  80 SW7       30.36F WCI  -2
MARION +       LGT SNOW  11   7  81 SW16      30.31F WCI  -5
MT COMFORT *+  FAIR       9   7  92 SW8       30.36F WCI  -4
SHELBYVILLE    FAIR       8   2  76 S8        30.38F WCI  -4
ZIONSVILLE +   FAIR       9   5  84 SW12      30.34F WCI  -6

$$

INZ033-034-041-042-049-050-058-059-180800-
EAST CENTRAL INDIANA

CITY           SKY/WX    TMP DP  RH WIND       PRES   REMARKS
MUNCIE         FAIR      12   5  73 SW10      30.30F WCI  -1
RICHMOND +     FAIR       9   5  85 SW13      30.34F WCI  -7

$$

INZ060-061-067>069-081>083-085>088-180800-
SOUTHWEST INDIANA

CITY           SKY/WX    TMP DP  RH WIND       PRES   REMARKS
EVANSVILLE     FAIR       8   5  87 SW9       30.49F WCI  -5
HUNTINGBURG +  FAIR       8   4  83 SW9       30.47F WCI  -5
WASHINGTON +   FAIR      12   4  71 SW10      30.45F WCI  -1

$$

INZ062-063-066-070>080-084-089>092-180800-
SOUTH CENTRAL AND SOUTHEAST INDIANA

CITY           SKY/WX    TMP DP  RH WIND       PRES   REMARKS
BATESVILLE *+    N/A    N/A N/A N/A MISG        N/A
BEDFORD +      FAIR       7   3  85 S6        30.42F WCI  -3
BLOOMINGTON    FAIR      11   4  73 SW9       30.40S WCI  -2
FRENCH LICK *+ FAIR      10   5  79 SW3       30.43F
MADISON *+     FAIR       9   5  85 SW3       30.45S
NORTH VERNON + FAIR       7   3  85 S6        30.43F WCI  -3
SEYMOUR +      FAIR      10   3  72 S3        30.44F

$$





USA.gov is the U.S. government's official web portal to all federal, state and local government web resources and services.